User: anonymous   Login
Location: Azul
(36.7830°S, 59.8500°W)
Time: 01:47:10
(UTC-03:00)
Language:

DUCHIFAT 1 - Orbit

View from above orbital plane
View from above orbital plane
View from above satellite
View from above satellite

Ground track
Ground track

The orbit data is extracted from the following two-line orbital elements,

1 40021U 14033M   21295.40340770  .00001077  00000-0  11312-3 0  9998
2 40021  97.9826 237.0126 0014091 103.6604 256.6183 14.91553697399200
Epoch (UTC): 22 October 2021 09:40:54
Eccentricity: 0.0014091
inclination: 97.9826°
perigee height: 583 km
apogee height: 603 km
right ascension of ascending node: 237.0126°
argument of perigee: 103.6604°
revolutions per day: 14.91553697
mean anomaly at epoch: 256.6183°
orbit number at epoch: 39920

The dashed part of the orbit path shows where the satellite is in the earth's shadow,  

DLR